Volver al catálogo

ION SCV-008

ActivoCienciaSSO
NORAD 55051·PAYLOAD·🇮🇹 Italy

Lanzado Jan 3, 2023 desde Cape Canaveral Space Force Station

Loading…

Próximos Pases (próximas 24 horas)

TLE

ActualizadoSource: Space-Track

Época: Sep 13, 2026, 20:18 UTC

1 55051U 23001AU  26256.84648471  .00005351  00000-0  18915-3 0  9996
2 55051  97.5720 354.7087 0015775  62.7898 297.4947 15.29513982204886

Sigue ION SCV-008 en tiempo real con AllMySat

Download on the App Store